Regional Weather Roundup
Issued by NWS Charleston, SC

Current Version | Previous Version | Graphics & Text | Print | Product List | Glossary On
Versions: 1 2 3 4 5 6 7 8 9 10 11 12 13 14 15 16 17 18 19 20 21 22 23 24 25 26 27 28 29 30 31 32 33 34 35 36 37 38 39 40 41 42 43 44 45 46 47 48 49 50
290 ASUS42 KCHS 260212 RWRCHS REGIONAL WEATHER ROUNDUP NATIONAL WEATHER SERVICE CHARLESTON SC 1000 PM EDT SAT MAR 25 2017 NOTE: "FAIR" INDICATES FEW OR NO CLOUDS BELOW 12,000 FEET WITH NO SIGNIFICANT WEATHER AND/OR OBSTRUCTIONS TO VISIBILITY. NOT ALL STATIONS ARE QUALITY CONTROLLED. USE DATA WITH CAUTION... ESPECIALLY DEWPOINT OBSERVATIONS. SCZ027-030-031-034>040-042>050-260300- ...SOUTHEAST SOUTH CAROLINA... CITY SKY/WX TMP DP RH WIND PRES REMARKS N CHARLESTON PTCLDY 63 55 75 E6 30.23S WATERFRONT PRK N/A 62 60 93 CALM 30.23R JOHNS ISLAND FAIR 59 57 94 CALM 30.23F PINOPOLIS N/A 63 57 82 CALM 30.14R MONCKS CORNER FAIR 57 54 88 CALM 30.24S SUMMERVILLE FAIR 61 55 82 E3 30.24S BEAUFORT MCAS CLEAR 63 60 90 SE3 30.22R BEAUFORT ARPT FAIR 61 59 94 SE5 30.22R HILTON HEAD IS CLEAR 64 59 82 CALM 30.22S WALTERBORO CLEAR 61 54 77 CALM 30.24R ALLENDALE FAIR 63 54 72 CALM 30.21R ...SOUTHERN MIDLANDS AND PEE DEE... CITY SKY/WX TMP DP RH WIND PRES REMARKS GEORGETOWN FAIR 59 55 88 CALM 30.26S KINGSTREE FAIR 59 52 77 CALM 30.25R ORANGEBURG CLEAR 63 53 70 SE3 30.23R BARNWELL FAIR 64 55 72 SE3 30.22R AIKEN FAIR 63 52 67 SE9G16 30.24R MANNING FAIR 59 54 82 CALM 30.24R COLUMBIA PTCLDY 67 51 56 SE9 30.21R SUMTER CLEAR 64 54 70 SE6 30.21R FLORENCE PTCLDY 61 54 77 SE5 30.25R MYRTLE BEACH CLEAR 63 57 82 SE8 30.27R N MYRTLE BEACH CLOUDY 63 57 81 CALM 30.26R $$ GAZ063-065-086>088-099>101-113>116-118-119-134>141-150-260300- ...SOUTHEAST GEORGIA... CITY SKY/WX TMP DP RH WIND PRES REMARKS SAVANNAH ARPT CLEAR 63 54 72 E6 30.21R HUNTER AAF CLEAR 63 58 84 E3 30.19R FORT STEWART PTCLDY 62 55 79 E5 30.18R STATESBORO CLEAR 65 57 77 CALM 30.21R SYLVANIA CLEAR N/A N/A N/A CALM 30.22R CLAXTON FAIR N/A N/A N/A E5 30.20R ...CSRA...CENTRAL AND FAR SOUTHEAST GEORGIA... CITY SKY/WX TMP DP RH WIND PRES REMARKS THOMSON MOCLDY 68 52 56 SW8 30.22R AUGUSTA-BUSH CLEAR 67 54 63 SE7 30.19R AUGUSTA-DANIEL CLEAR 68 51 54 SE7 30.20R SWAINSBORO FAIR 68 55 64 SE10 30.19S VIDALIA CLEAR 68 55 64 SE6 30.19R EASTMAN FAIR 70 46 40 SE8 30.17R HAZLEHURST FAIR 69 58 68 SE6 30.16R ALMA CLEAR 67 57 70 SE8 30.17R WAYCROSS CLEAR 69 62 77 SE8 30.17R JESUP FAIR 64 55 72 E3 30.19S BAXLEY FAIR 68 61 77 SE5 30.18R BRUNSWICK CLEAR 66 61 82 SE3 30.20R SAINT SIMONS CLEAR 66 59 78 SE9 30.18R $$ SCZ027-028-034-036>038-045-046-048>050-GAZ119-141-260300- ...LAKE AND SUPPLEMENTAL COASTAL OBSERVATIONS... STATION/POSITION TIME TEMP WIND PRES WAVE SWELL AIR SEA DIR/SP/G HT/PER HT/PER/DIR (UTC) (F) (DEG/KT/KT) (MB) (FT/S) (FT/S/D) WINYAH BAY NOT AVBL LAKE MURRAY 0120 67 150/ 9/ 13 1022.0R ACE BASIN NERRS NOT AVBL FORT PULASKI 0136 65 62 130/ 5/ 6 1023.2R SAPELO ISLAND 0100 66 120/ 6 1022.0 $$ ANZ835-935-AMZ111-154-330-350-352-354-370-450-454-472-260300- ...C-MAN AND BUOY OBSERVATIONS... STATION/POSITION TIME TEMP WIND PRES WAVE SWELL AIR SEA DIR/SP/G HT/PER HT/PER/DIR (UTC) (F) (DEG/KT/KT) (MB) (FT/S) (FT/S/D) BUOY 41004 0050 71 71 120/ 14/ 17 1023.1 4/ 7 3/110/ 7 BUOY 41008 0050 64 62 110/ 6/ 10 1022.1 4/ 8 3/120/ 8 FOLLY BEACH CMAN 0100 62 110/ 5/ 5 1024.1R CAPERS NEARSHORE 0108 63 120/ 6/ 10 1023.6R FRIPP NEARSHORE 0108 62 60 110/ 6/ 8 1022.8R STATION/POSITION TIME TEMP WIND PRES WAVE SWELL AIR SEA DIR/SP/G HT/PER HT/PER/DIR (UTC) (F) (DEG/KT/KT) (MB) (FT/S) (FT/S/D) 5E ST. MARYS GA 0200 65 N/A 4/ 9 2/110/11 FRYING PAN BUOY 0120 70 74 160/ 12/ 16 1024.8 BUOY 41025 0050 70 76 190/ 17/ 21 1025.2 4/ 5 2/110/ 9 CAPE LOOKOUT NC 0100 67 210/ 7/ 9 1025.0S BUOY 41002 0050 67 73 80/ 10/ 12 1026.4 5/ 8 5/130/ 8 BUOY 41010 NOT AVBL ST AUGUSTINE FL 0100 68 69 130/ 12/ 13 1022.4S $$

USA.gov is the U.S. government's official web portal to all federal, state and local government web resources and services.